NOAA NWS Hourly Roundups by Site

Regional Weather Roundup for Omaha, NE

To Select Another Site Choose from List

Select Site:  

000
ASUS43 KOAX 272110
RWRNE

WEATHER ROUNDUP FOR NEBRASKA
NATIONAL WEATHER SERVICE OMAHA NE
300 PM CST MON JAN 27 2020

NOTES: SATELLITE DATA IS BEING USED TO AUGMENT CLOUD COVER ABOVE
       12000 FEET.
       "FAIR" INDICATES FEW OR NO CLOUDS BELOW 12,000 FEET WITH NO
       SIGNIFICANT WEATHER AND/OR OBSTRUCTIONS TO VISIBILITY.


NEZ001>004-019>022-054>056-272200-
NEBRASKA PANHANDLE

CITY           SKY/WX    TMP DP  RH WIND       PRES   REMARKS
SCOTTSBLUFF    CLOUDY    36  29  75 E10       29.92F WCI  28
ALLIANCE       CLOUDY    32  28  85 S9        29.93F WCI  24
CHADRON        CLOUDY    38  30  73 NE3       29.93F
GORDON         CLOUDY    36  30  79 S5        29.94F WCI  32
KIMBALL        CLOUDY    39  26  59 S10       29.91F WCI  32
SIDNEY         PTSUNNY   36  25  64 S7        29.93F WCI  30
$$

NEZ057>060-069>072-079>082-272200-
SOUTHWEST NEBRASKA

CITY           SKY/WX    TMP DP  RH WIND       PRES   REMARKS
NORTH PLATTE   CLOUDY    35  26  69 CALM      30.01S
IMPERIAL       PTSUNNY   36  25  64 VRB7      29.97F WCI  30
LEXINGTON      CLOUDY    34  30  84 SE5       30.04R WCI  30
MCCOOK         CLOUDY    32  27  81 E8        30.01F WCI  25
OGALLALA       CLOUDY    35  29  80 SE6       29.97F WCI  30
$$

NEZ005>010-023>029-035>040-094-272200-
NORTH CENTRAL NEBRASKA

CITY           SKY/WX    TMP DP  RH WIND       PRES   REMARKS
VALENTINE      CLOUDY    34  27  75 VRB3      30.02R
AINSWORTH      CLOUDY    32  29  90 W5        30.02S WCI  27
BROKEN BOW     CLOUDY    37  27  67 NE8       30.00F WCI  31
O`NEILL        CLOUDY    31  29  93 CALM      30.05S
ORD            CLOUDY    34  28  79 NE7       30.03S WCI  28
THEDFORD       CLOUDY    34  29  80 CALM      30.01F
$$

NEZ041-046>049-061>064-073>077-083>087-272200-
SOUTH CENTRAL NEBRASKA

CITY           SKY/WX    TMP DP  RH WIND       PRES   REMARKS
GRAND ISLAND   CLOUDY    32  27  81 NE7       30.05F WCI  26
AURORA         CLOUDY    33  30  90 N8        30.05F WCI  26
HASTINGS       CLOUDY    33  28  81 NE9       30.04F WCI  25
HEBRON         CLOUDY    34  30  85 N8        30.06S WCI  27
HOLDREGE         N/A    N/A N/A N/A MISG        N/A
KEARNEY        CLOUDY    33  28  81 NE10      30.04F WCI  25
YORK           CLOUDY    32  28  86 NE7       30.06F WCI  26
$$

NEZ011>018-030>034-042>045-272200-
NORTHEAST NEBRASKA

CITY           SKY/WX    TMP DP  RH WIND       PRES   REMARKS
NORFOLK        FLURRIES  31  25  78 N9        30.06S WCI  23
ALBION         CLOUDY    32  28  85 N5        30.05F WCI  27
BLAIR          CLOUDY    33  31  92 NW7       30.06S FOG     WCI  27
COLUMBUS       CLOUDY    34  27  75 N6        30.08S WCI  29
FREMONT        CLOUDY    33  31  94 N7        30.07F WCI  27
TEKAMAH        CLOUDY    32  30  92 NW8       30.08S FOG     WCI  25
WAYNE          CLOUDY    30  26  83 N8        30.07S WCI  23
$$

NEZ050>053-065>068-078-088>093-272200-
SOUTHEAST NEBRASKA

CITY           SKY/WX    TMP DP  RH WIND       PRES   REMARKS
LINCOLN        CLOUDY    35  29  78 N9        30.08S WCI  28
OMAHA EPPLEY   CLOUDY    34  31  88 N12       30.07S WCI  25
BEATRICE       CLOUDY    37  31  81 N6        30.06R WCI  32
FALLS CITY     CLOUDY    36  32  85 NW7       30.05S WCI  30
NEBRASKA CITY  CLOUDY    35  34  95 NW5       30.06S WCI  31
PLATTSMOUTH    CLOUDY    35  32  90 NW7       30.06S WCI  29
$$

NEZ044-045-051>053-067-272200-
OMAHA AREA

CITY           SKY/WX    TMP DP  RH WIND       PRES   REMARKS
OMAHA EPPLEY   CLOUDY    34  31  88 N12       30.07S WCI  25
BLAIR          CLOUDY    33  31  92 NW7       30.06S FOG     WCI  27
FREMONT        CLOUDY    33  31  94 N7        30.07F WCI  27
MILLARD        CLOUDY    36  30  79 N6        30.08S WCI  31
OFFUTT AFB     CLOUDY    36  30  80 NW8       30.07S WCI  29
PLATTSMOUTH    CLOUDY    35  32  90 NW7       30.06S WCI  29
WAHOO          CLOUDY    33  31  92 N9        30.07S WCI  26
$$



 

View Past Reports for Omaha, NE.

Products Courtesy of NOAA-NWS
NWS Information Parsing Script by Ken True at Saratoga Weather - Script by SE Lincoln Weather.